Regional Weather Roundup
Issued by NWS Boston, MA

Home | Current Version | Previous Version | Text Only | Print | Product List | Glossary On
Versions: 1 2 3 4 5 6 7 8 9 10 11 12 13 14 15 16 17 18 19 20 21 22 23 24 25 26 27 28 29 30 31 32 33 34 35 36 37 38 39 40 41 42 43 44 45 46 47 48 49 50
000
ASUS41 KBOX 222110
RWRBOX

REGIONAL WEATHER ROUNDUP
NATIONAL WEATHER SERVICE TAUNTON MA
400 PM EST MON DEC 22 2014

NOTE:  "FAIR" INDICATES FEW OR NO CLOUDS BELOW 12,000 FEET WITH NO
SIGNIFICANT WEATHER AND/OR OBSTRUCTIONS TO VISIBILITY.  THE FOLLOWING
OBSERVATION LOCATIONS DO NOT REPORT PRESENT WEATHER...PROVINCETOWN...
SMITHFIELD...BLOCK ISLAND...KEENE...AND OXFORD.

MAZALL-222200-
EASTERN MASSACHUSETTS

CITY           SKY/WX    TMP DP  RH WIND       PRES   REMARKS
BOSTON         LGT RAIN  41  39  93 N8        30.33R FOG
BEVERLY        CLOUDY    40  37  89 N7        30.32S
LAWRENCE       CLOUDY    38  35  89 NE9       30.35R WCI  31
BEDFORD        CLOUDY    40  36  86 NE7       30.31R
BLUE HILL        N/A     39  38  96 NE6       30.29R
NORWOOD        LGT RAIN  42  39  89 E3        30.32R FOG
MARSHFIELD     CLOUDY    45  39  81 CALM      30.33R
PLYMOUTH       CLOUDY    43  39  86 E7        30.31R
TAUNTON        CLOUDY    44  39  82 E6        30.31R
NEW BEDFORD    CLOUDY    44  40  85 NE3       30.30R
$$

MAZALL-222200-
CAPE COD AND THE ISLANDS

CITY           SKY/WX    TMP DP  RH WIND       PRES   REMARKS
FALMOUTH       CLOUDY    43  39  87 E8        30.31R
HYANNIS        CLOUDY    45  38  76 E8        30.30R
CHATHAM        CLOUDY    45  37  73 E9G18     30.32R
PROVINCETOWN   MOCLDY    45  36  70 E7        30.32R
NANTUCKET      CLOUDY    46  37  71 E14       30.30R
MARTHAS VNYRD  PTCLDY    44  37  76 E10       30.30R
$$

MAZALL-222200-
CENTRAL AND WESTERN MASSACHUSETTS

CITY           SKY/WX    TMP DP  RH WIND       PRES   REMARKS
WORCESTER      LGT SNOW  35  32  88 NE6       30.29R FOG     WCI  30
FITCHBURG      CLOUDY    38  30  73 NE3       30.33R
ORANGE         CLOUDY    39  32  76 E8        30.29S
SPRINGFIELD    CLOUDY    42  33  71 E6        30.28S
WESTFIELD      CLOUDY    39  33  79 N3        30.28S
NORTH ADAMS    CLOUDY    36  31  82 E10       30.26F WCI  28
PITTSFIELD     CLOUDY    35  31  85 E6        30.24R WCI  30
$$

RIZALL-222200-
RHODE ISLAND

CITY           SKY/WX    TMP DP  RH WIND       PRES   REMARKS
PROVIDENCE     CLOUDY    43  38  82 NE6       30.31R
NEWPORT        MOCLDY    43  38  82 E12       30.29R
BLOCK ISLAND   MOCLDY    45  37  76 E15       30.26F
SMITHFIELD     CLOUDY    39  32  75 N5        30.30R
WESTERLY       CLOUDY    44  38  79 NE9       30.28S
$$

CTZALL-222200-
CONNECTICUT

CITY           SKY/WX    TMP DP  RH WIND       PRES   REMARKS
BRADLEY INTL   CLOUDY    40  34  79 N3        30.27S
HARTFORD       CLOUDY    42  34  73 NW6       30.28R
BRIDGEPORT     CLOUDY    44  40  85 E14       30.25S
DANBURY        CLOUDY    41  33  73 E8        30.25S
GROTON         CLOUDY    44  37  76 E12       30.27R
NEW HAVEN      CLOUDY    46  36  68 CALM      30.26R
CHESTER        CLOUDY    45  36  70 E7        30.26R
MERIDEN        CLOUDY    42  34  73 N3        30.27S
WILLIMANTIC    CLOUDY    44  35  70 E8        30.29S
OXFORD         CLOUDY    39  30  70 VRB5      30.25R
$$

MEZ002-015-021-024-NHZ003-005-008-011-012-014-VTZ005-008-222200-
NORTHERN NEW ENGLAND

CITY           SKY/WX    TMP DP  RH WIND       PRES   REMARKS
PORTLAND ME    CLOUDY    39  30  70 N6        30.37F
BANGOR ME      CLOUDY    34  28  79 CALM      30.41S
CONCORD NH     CLOUDY    37  29  72 CALM      30.33S
MANCHESTER NH  CLOUDY    37  32  82 NE5       30.31F
NASHUA NH      CLOUDY    37  34  87 CALM      30.34S
PORTSMOUTH NH  DRIZZLE   38  35  87 NE7       30.32F
JAFFREY NH     CLOUDY    34  30  85 CALM      30.29R
KEENE NH       CLOUDY    37  30  75 E5        30.30S
BURLINGTON VT  CLOUDY    26  21  81 NW7       30.31S FOG     WCI  18
MT. WASHINGTON FOG       14  14 100 SW20        N/A  VSB 1/8 WCI  -3
$$

NYZ052-076-222200-
EASTERN NEW YORK

CITY           SKY/WX    TMP DP  RH WIND       PRES   REMARKS
ALBANY         CLOUDY    35  27  72 CALM      30.28R
NEW YORK CITY  DRIZZLE   43  37  81 NE9       30.24S FOG
$$

ANZALL-222200-
MARINE OBSERVATIONS

STATION/POSITION TIME  TEMP    WIND        PRES    VSBY  WAVE
                       AIR SEA DIR/SP/G                  HT/PER
                 (UTC) (F)     (DEG/KT/KT) (MB)    (MI)  (FT/S)
BOSTON BUOY      2050   44 46   90/  8/ 10 1026.8F         3/ 7
BUZZARDS BAY     2000           80/ 14/ 15 1026.3R
NANTUCKET SOUND  2050   45 45   90/ 14/ 14 1025.8R         2/ 4
MASS BAY-STELLWA 2004   42 44   70/  8/ 10   N/A    1 7/8  3/ 6
ISLE OF SHOALS   2100   43      80/ 11/ 12 1026.1F
S OF BLOCK IS    2008      51                N/A           3/ 4
$$

......................KEY.........................
  SKY/WX - SKY CONDITION/PRESENT WEATHER
  TMP    - TEMPERATURE IN FAHRENHEIT
  DWPT   - DEWPOINT IN FAHRENHEIT
  RH     - RELATIVE HUMIDITY IN PERCENT
  WIND   - DIRECTION AND SPEED IN MPH
  PRES   - MEAN SEA LEVEL PRESSURE IN INCHES OF HG
  WCI    - WIND CHILL INDEX
  VSB    - VISIBILITY IN MILES
  HX     - HEAT INDEX
  TC     - TEMPERATURE IN CELSIUS
  VRB    - VARIABLE WIND DIRECTION
  N/A    - NOT AVAILABLE


USA.gov is the U.S. government's official web portal to all federal, state and local government web resources and services.